GFSFLT1_sfc_30mbdewp_156.txt.gz
Dewpoint
30 30 31 30 31 32 33 34 35 35 35 35 35 35 36 36 36 37 39 38 39 40 40 41 42 42 44 46 49 54 57 60
29 30 30 29 30 31 32 32 34 33 32 33 34 34 35 35 35 37 37 38 38 39 39 39 40 41 43 44 46 49 54 56
27 28 28 29 29 31 31 31 32 32 32 33 34 34 34 35 35 36 36 37 37 37 38 39 40 41 42 43 44 47 50 56
26 26 27 28 28 30 29 31 31 32 33 32 33 34 33 33 33 34 35 35 36 36 37 38 38 39 40 42 43 45 46 51
26 25 26 26 28 29 30 31 30 31 33 32 33 32 31 32 33 33 34 35 35 35 35 35 36 37 38 39 41 44 46 46
26 25 25 25 27 28 30 30 30 31 32 32 32 32 32 32 32 32 33 34 34 33 34 34 34 35 36 37 38 40 42 42
25 24 24 25 26 28 29 29 29 30 31 31 31 31 31 31 31 31 31 32 32 33 32 32 33 33 34 35 36 38 39 41
24 23 23 24 25 27 27 28 28 29 30 30 30 30 30 30 30 30 30 30 31 31 31 31 31 31 32 34 34 36 37 40
25 24 24 24 25 27 28 27 28 29 29 29 30 29 29 29 29 29 29 30 29 30 30 30 30 30 32 32 33 35 37 39
26 25 25 26 26 27 28 28 28 28 29 29 28 29 28 28 29 29 29 29 28 29 29 29 29 29 30 32 33 33 36 38
26 26 26 26 27 27 28 28 27 28 28 28 27 27 28 28 28 27 27 27 27 27 28 28 27 28 30 30 31 32 33 37
28 27 27 26 27 27 27 27 27 28 28 27 27 25 26 27 27 27 27 27 26 26 26 26 26 27 28 29 29 29 30 31
27 26 27 26 26 26 26 26 27 28 28 27 27 25 25 25 26 26 26 26 26 25 25 25 26 27 27 28 28 28 28 28
27 26 26 25 25 25 25 26 26 26 27 27 27 24 24 24 25 25 25 25 25 25 24 24 26 27 26 26 26 26 26 27
27 26 26 25 25 25 25 25 26 26 25 26 25 25 23 23 23 24 24 24 24 24 25 24 27 26 25 26 25 25 25 26
26 26 25 25 24 25 24 25 24 24 24 24 23 21 21 22 22 22 23 23 23 23 23 23 26 26 25 24 25 24 24 24
25 24 21 20 20 21 21 22 23 23 22 22 21 18 16 17 18 18 19 20 21 21 22 24 24 25 22 21 24 25 23 22
22 20 19 19 19 20 20 20 21 20 20 20 20 15 14 14 13 13 13 14 14 16 20 22 22 21 20 20 21 25 23 22
21 19 19 19 19 19 19 18 19 19 18 18 18 14 13 13 12 12 11 10 10 9 12 14 14 18 16 18 18 25 24 22

GFSFLT1_sfc_30mbdewp_159.txt.gz
Dewpoint
31 31 32 31 32 34 34 35 37 37 36 36 37 37 37 38 37 39 40 40 40 39 39 40 41 40 40 43 44 44 46 47
30 31 32 31 32 33 33 34 35 34 33 34 35 35 36 37 37 38 38 39 40 39 38 39 39 39 40 41 42 43 43 45
29 30 30 31 31 32 32 32 33 33 33 33 35 36 36 36 36 37 37 38 39 37 37 37 37 37 39 39 40 41 42 44
28 28 30 30 31 32 31 32 32 33 35 33 35 34 34 34 34 34 36 37 37 37 37 36 36 36 36 37 37 39 39 40
28 27 28 28 30 32 31 32 32 32 34 33 34 33 33 34 34 34 35 36 36 36 35 35 35 35 35 36 36 37 38 38
27 26 26 26 29 30 32 31 31 32 33 33 33 33 33 33 33 34 34 34 35 34 34 34 33 33 33 34 35 35 36 38
26 25 25 26 28 30 31 30 30 32 32 32 32 32 32 32 32 32 32 33 33 33 32 33 33 33 32 32 33 34 34 36
24 24 23 26 27 29 28 29 29 30 31 32 32 31 31 30 30 30 31 31 31 31 31 31 31 32 32 32 32 33 34 34
25 25 25 26 27 29 30 28 29 29 30 31 31 31 30 29 30 30 29 30 29 30 30 30 30 31 31 32 31 33 33 33
27 27 27 28 28 29 30 29 28 29 30 30 29 30 30 29 29 29 29 29 28 29 29 29 30 30 30 31 30 31 31 32
28 29 29 28 29 29 30 28 28 29 29 29 28 28 28 29 29 28 28 28 28 28 28 28 28 28 29 29 29 29 30 30
30 29 29 28 29 29 29 28 28 28 29 29 29 28 27 28 28 27 27 27 27 26 26 26 27 28 28 28 27 28 28 28
29 29 29 28 28 28 28 28 28 28 28 28 28 27 26 26 26 27 26 26 26 26 26 25 26 26 26 27 27 27 27 28
30 29 28 27 28 28 28 28 28 28 28 28 27 26 25 26 25 26 26 25 25 25 25 25 26 26 25 25 26 26 25 28
29 28 28 27 27 28 27 28 29 29 27 27 26 26 25 25 24 25 25 24 24 24 25 25 25 25 24 24 26 26 25 25
29 28 28 27 27 27 26 26 26 26 27 25 24 22 22 22 22 22 23 23 23 22 23 23 23 24 23 24 25 25 24 23
27 26 25 22 23 24 22 23 23 23 23 22 21 18 18 18 18 18 18 19 20 22 21 24 23 23 18 19 23 26 24 23
26 23 21 21 21 21 20 20 21 20 20 19 18 15 15 15 14 14 14 15 15 16 21 22 23 20 17 16 19 26 25 23
23 21 20 20 21 20 20 18 19 18 17 17 16 14 14 14 13 13 13 13 12 12 13 14 14 17 17 16 13 25 23 22

GFSFLT1_sfc_30mbdewp_162.txt.gz
Dewpoint
32 31 32 32 34 35 35 37 38 38 38 38 39 40 40 40 40 41 42 41 42 41 40 40 40 39 39 40 41 42 42 42
31 32 33 33 34 34 34 35 37 36 35 36 37 37 38 39 39 40 40 41 40 39 38 37 37 37 37 37 38 38 39 41
29 31 32 32 33 33 33 33 35 35 35 36 37 38 38 38 38 39 39 39 39 37 37 37 36 36 36 36 35 35 37 37
29 29 31 32 33 33 32 33 33 35 36 36 37 37 36 36 36 36 38 38 38 38 36 35 35 35 35 35 34 34 35 36
29 28 30 30 32 33 33 32 33 34 35 35 35 34 33 34 35 36 36 37 37 36 35 34 34 34 34 33 33 33 34 34
29 28 28 27 30 33 33 32 32 33 34 34 34 34 34 34 34 34 34 35 35 35 33 34 34 34 32 33 33 33 33 34
28 27 26 27 31 32 32 31 31 33 33 34 34 33 33 32 32 32 32 33 33 33 32 32 32 33 33 32 33 33 33 34
26 25 25 27 29 31 29 30 30 31 33 33 33 33 32 31 31 31 31 31 31 31 31 31 31 32 32 32 31 32 32 32
25 25 26 27 29 31 30 29 29 30 31 32 32 32 32 31 31 31 30 30 30 29 29 29 31 31 31 31 31 30 31 31
26 27 28 29 29 30 31 29 29 30 30 32 31 31 31 31 31 30 30 29 28 28 28 27 29 30 29 29 29 29 29 29
29 30 30 29 30 30 31 29 29 29 29 31 30 30 30 30 30 28 28 27 28 27 26 26 28 28 28 28 28 29 28 28
32 30 30 30 30 30 29 29 29 29 29 29 30 29 28 29 28 27 26 26 26 25 25 25 27 26 26 27 28 27 26 27
30 29 28 28 28 29 29 28 28 28 29 28 28 28 27 27 27 27 26 25 26 25 25 24 26 25 25 26 27 27 26 26
31 30 30 28 28 28 28 28 28 29 28 28 27 27 26 26 26 27 25 25 24 24 24 24 24 23 23 25 26 26 25 25
29 28 28 28 28 28 28 29 28 30 28 27 28 27 25 25 25 27 26 26 25 25 25 24 23 22 22 23 25 26 24 23
29 29 28 28 27 29 28 27 30 31 28 27 24 25 23 23 22 23 25 25 25 23 24 25 22 22 21 20 24 25 23 23
31 31 28 27 26 28 24 25 24 24 23 22 20 18 19 19 20 20 20 22 26 24 23 26 21 21 19 19 23 24 23 21
32 27 25 22 21 21 22 21 22 21 19 18 16 16 16 16 16 16 16 17 18 20 20 21 21 20 19 18 16 24 22 20
27 25 23 22 22 21 21 19 20 19 17 16 14 15 14 15 14 14 14 15 14 15 16 16 17 19 18 18 14 17 18 19

GFSFLT1_sfc_30mbdewp_165.txt.gz
Dewpoint
31 32 33 34 35 35 37 37 36 36 38 38 39 39 41 41 40 40 41 41 40 39 37 38 37 37 37 36 36 36 36 37
32 33 33 34 34 34 35 35 36 36 36 36 37 37 39 38 40 40 40 40 39 37 36 36 36 36 35 35 34 35 35 36
32 32 32 34 33 33 33 34 36 35 36 37 38 39 38 38 38 38 39 39 38 35 35 35 34 34 33 33 33 33 34 35
31 32 32 33 33 33 33 34 35 35 35 35 36 36 35 36 35 37 36 38 37 35 34 34 34 34 33 32 33 32 32 33
30 31 32 33 33 33 33 33 33 34 34 35 34 34 33 34 34 35 35 36 36 34 33 32 32 33 32 33 32 33 33 33
29 30 30 32 33 32 32 33 33 33 33 35 34 33 33 34 33 32 33 34 34 32 32 31 31 31 31 32 32 32 33 33
27 27 29 31 32 31 31 32 32 33 34 34 33 33 32 31 31 31 32 32 32 31 30 29 31 31 31 30 31 32 32 32
25 26 28 29 30 30 30 31 31 31 33 33 32 32 32 31 31 31 30 30 30 29 29 28 29 30 30 30 31 30 30 30
26 27 28 29 31 31 30 30 30 30 31 32 31 32 32 32 31 30 30 29 29 28 28 28 28 29 29 29 30 30 29 30
27 28 29 29 30 31 29 30 29 30 30 32 31 30 31 31 29 29 29 28 26 27 26 27 28 27 27 28 29 28 28 28
30 30 30 31 31 30 30 29 29 29 29 30 30 30 30 30 28 27 27 27 26 26 25 25 27 25 26 27 29 28 27 27
29 29 30 29 30 30 29 29 29 29 29 29 29 28 28 29 27 26 26 26 25 25 25 24 26 24 25 26 27 26 26 25
29 29 29 27 27 28 29 28 28 28 28 29 28 27 28 28 27 25 26 25 25 24 25 22 24 23 23 24 26 24 24 23
28 28 27 27 27 27 28 28 28 29 28 27 28 26 27 26 27 26 26 25 24 25 26 22 23 22 22 22 25 24 23 20
29 29 29 29 28 27 28 28 27 28 28 27 28 24 25 24 26 25 26 25 23 23 25 21 22 22 22 21 24 24 22 20
29 28 27 28 28 28 28 29 28 29 27 27 26 24 24 23 23 26 26 25 22 23 24 20 20 22 21 20 25 24 20 19
29 29 29 29 27 27 29 28 31 30 27 24 19 21 21 21 21 23 25 25 23 21 22 19 18 21 19 17 19 20 20 19
29 32 31 28 26 28 28 25 25 22 21 18 18 18 17 16 16 17 17 18 20 18 18 20 18 20 19 17 15 18 17 17
33 32 29 25 24 23 22 23 22 19 18 16 17 16 16 16 15 15 15 16 15 17 17 17 18 19 19 18 14 15 16 16